Date,TemperatureHighF,TemperatureAvgF,TemperatureLowF,DewpointHighF,DewpointAvgF,DewpointLowF,HumidityHigh,HumidityAvg,HumidityLow,PressureMaxIn,PressureMinIn,WindSpeedMaxMPH,WindSpeedAvgMPH,GustSpeedMaxMPH,PrecipitationSumIn
2013-2-1,32,30,26,14,11,7,56,46,38,30.00,29.75,9,3,22,0.00
2013-2-2,29,27,19,19,13,7,68,56,45,30.26,30.06,8,2,18,0.00
2013-2-3,34,28,22,25,22,18,87,78,68,29.97,29.72,6,2,13,0.00
2013-2-4,31,27,22,17,11,8,73,53,41,29.90,29.75,10,3,21,0.00
2013-2-5,26,25,23,22,19,13,88,79,64,30.03,29.93,1,0,5,0.00
2013-2-6,40,33,26,30,22,13,94,68,47,30.19,29.93,6,1,16,0.05
2013-2-7,31,26,18,17,9,5,72,50,35,30.52,30.43,8,1,13,0.00
2013-2-8,33,30,24,31,27,17,95,87,73,30.47,29.62,7,2,17,0.00
2013-2-9,24,21,18,20,16,13,86,82,80,30.06,29.78,0,0,0,0.00
2013-2-10,34,25,9,21,16,5,90,70,51,30.39,30.33,2,0,7,0.13
2013-2-11,45,37,18,44,36,16,97,95,93,30.26,29.66,9,2,19,0.45
2013-2-12,44,40,33,33,29,27,94,66,53,29.90,29.70,9,3,19,0.01
2013-2-13,41,36,25,27,26,20,85,67,53,29.88,29.73,5,1,11,0.00
2013-2-14,43,37,27,30,26,22,93,68,44,29.99,29.73,4,1,12,2.68
2013-2-15,46,40,24,39,35,22,96,81,59,30.04,29.95,10,3,21,0.00
2013-2-16,36,33,31,33,31,30,96,92,81,29.92,29.64,6,3,14,2.68
2013-2-17,31,23,19,30,18,7,95,81,49,29.64,29.35,14,6,32,0.00
2013-2-18,32,26,15,8,5,2,59,41,30,30.14,29.88,7,4,25,0.00
2013-2-19,46,39,21,42,33,15,95,79,65,30.16,29.72,8,2,17,0.22
2013-2-20,37,33,27,32,19,11,94,57,44,29.75,29.60,8,4,26,0.00
2013-2-21,34,29,25,16,15,14,68,55,47,30.01,29.79,13,5,20,0.00
2013-2-22,38,33,28,28,24,20,74,69,61,30.36,30.27,6,2,16,0.00
2013-2-23,38,35,30,32,30,26,90,83,75,30.26,30.02,6,2,15,0.07
2013-2-24,41,37,33,40,36,32,97,96,95,29.75,29.62,10,5,20,0.53
2013-2-25,41,35,28,32,29,27,96,79,64,30.23,29.99,6,2,13,0.08
2013-2-26,44,38,31,33,30,27,91,72,50,30.33,30.24,6,1,12,0.00
2013-2-27,43,42,41,42,41,40,96,96,95,29.94,29.56,17,6,29,1.04
2013-2-28,46,41,35,41,38,34,97,90,80,29.64,29.53,1,0,5,0.00